Time,TemperatureF,DewpointF,PressureIn,WindDirection,WindDirectionDegrees,WindSpeedMPH,WindSpeedGustMPH,Humidity,HourlyPrecipIn,Conditions,Clouds,dailyrainin,SoftwareType,DateUTC
2013-03-08 00:03:00,35.7,25.5,30.10,ENE,68,5.5,5.5,66,0.00,,---,0.00,VWS V13.01,2013-03-08 07:03:00,
2013-03-08 00:09:00,35.7,25.5,30.10,ENE,68,5.3,5.3,66,0.00,,---,0.00,VWS V13.01,2013-03-08 07:09:00,
2013-03-08 00:14:00,35.9,25.7,30.10,ENE,68,7.1,7.1,66,0.00,,---,0.00,VWS V13.01,2013-03-08 07:14:00,
2013-03-08 00:19:00,36.1,25.5,30.10,ENE,68,0.0,0.0,65,0.00,,---,0.00,VWS V13.01,2013-03-08 07:19:00,
2013-03-08 00:25:00,36.1,25.5,30.10,ENE,68,0.0,2.6,65,0.00,,---,0.00,VWS V13.01,2013-03-08 07:25:00,
2013-03-08 00:31:00,36.1,25.5,30.10,ENE,68,6.2,6.2,65,0.00,,---,0.00,VWS V13.01,2013-03-08 07:31:00,
2013-03-08 00:36:00,36.1,25.5,30.10,ENE,68,10.5,10.5,65,0.00,,---,0.00,VWS V13.01,2013-03-08 07:36:00,
2013-03-08 00:41:00,36.3,25.7,30.10,ENE,68,8.7,8.7,65,0.00,,---,0.00,VWS V13.01,2013-03-08 07:41:00,
2013-03-08 00:46:00,36.3,25.3,30.10,ENE,68,4.9,6.2,64,0.00,,---,0.00,VWS V13.01,2013-03-08 07:46:00,
2013-03-08 00:51:00,36.3,25.3,30.10,ENE,68,3.8,3.8,64,0.00,,---,0.00,VWS V13.01,2013-03-08 07:51:00,
2013-03-08 00:57:00,36.3,24.9,30.10,ENE,68,0.0,0.0,63,0.00,,---,0.00,VWS V13.01,2013-03-08 07:57:00,
2013-03-08 01:02:00,36.1,24.7,30.10,ENE,68,0.0,0.0,63,0.00,,---,0.00,VWS V13.01,2013-03-08 08:02:00,
2013-03-08 01:07:00,36.1,24.7,30.10,ENE,68,4.4,4.4,63,0.00,,---,0.00,VWS V13.01,2013-03-08 08:07:00,
2013-03-08 01:12:00,36.1,24.7,30.10,ENE,68,5.8,5.8,63,0.00,,---,0.00,VWS V13.01,2013-03-08 08:12:00,
2013-03-08 01:17:00,36.3,24.9,30.09,ENE,68,5.5,5.5,63,0.00,,---,0.00,VWS V13.01,2013-03-08 08:17:00,
2013-03-08 01:22:00,36.3,24.9,30.10,ENE,68,6.2,8.0,63,0.00,,---,0.00,VWS V13.01,2013-03-08 08:22:00,
2013-03-08 01:28:00,36.3,24.9,30.10,ENE,68,7.3,7.3,63,0.00,,---,0.00,VWS V13.01,2013-03-08 08:28:00,
2013-03-08 01:33:00,36.3,24.9,30.09,ENE,68,6.2,7.8,63,0.00,,---,0.00,VWS V13.01,2013-03-08 08:33:00,
2013-03-08 01:38:00,36.3,24.5,30.09,ENE,68,8.0,8.0,62,0.00,,---,0.00,VWS V13.01,2013-03-08 08:38:00,
2013-03-08 01:43:00,36.5,24.7,30.08,ENE,68,8.2,8.2,62,0.00,,---,0.00,VWS V13.01,2013-03-08 08:43:00,
2013-03-08 01:48:00,36.5,24.7,30.09,ENE,68,11.1,11.1,62,0.00,,---,0.00,VWS V13.01,2013-03-08 08:48:00,
2013-03-08 01:53:00,36.5,24.7,30.09,East,90,6.7,6.7,62,0.00,,---,0.00,VWS V13.01,2013-03-08 08:53:00,
2013-03-08 01:58:00,36.5,24.7,30.08,ENE,68,9.8,9.8,62,0.00,,---,0.00,VWS V13.01,2013-03-08 08:58:00,
2013-03-08 02:03:00,36.5,24.7,30.09,ENE,68,8.9,8.9,62,0.00,,---,0.00,VWS V13.01,2013-03-08 09:03:00,
2013-03-08 02:08:00,36.5,24.7,30.09,ENE,68,2.9,2.9,62,0.00,,---,0.00,VWS V13.01,2013-03-08 09:08:00,
2013-03-08 02:13:00,36.3,24.5,30.09,ENE,68,0.0,0.0,62,0.00,,---,0.00,VWS V13.01,2013-03-08 09:13:00,
2013-03-08 02:18:00,36.3,24.5,30.08,ENE,68,6.9,8.7,62,0.00,,---,0.00,VWS V13.01,2013-03-08 09:18:00,
2013-03-08 02:23:00,36.3,24.9,30.08,ENE,68,7.3,7.3,63,0.00,,---,0.00,VWS V13.01,2013-03-08 09:23:00,
2013-03-08 02:28:00,36.1,24.7,30.08,ENE,68,5.8,5.8,63,0.00,,---,0.00,VWS V13.01,2013-03-08 09:28:00,
2013-03-08 02:34:00,35.9,24.5,30.08,ENE,68,5.5,5.5,63,0.00,,---,0.00,VWS V13.01,2013-03-08 09:34:00,
2013-03-08 02:39:00,35.9,24.5,30.08,ENE,68,0.0,0.0,63,0.00,,---,0.00,VWS V13.01,2013-03-08 09:39:00,
2013-03-08 02:44:00,35.9,24.5,30.08,ENE,68,7.1,8.7,63,0.00,,---,0.00,VWS V13.01,2013-03-08 09:44:00,
2013-03-08 02:49:00,35.9,24.5,30.07,ENE,68,7.1,7.1,63,0.00,,---,0.00,VWS V13.01,2013-03-08 09:49:00,
2013-03-08 02:54:00,35.9,24.5,30.07,ENE,68,6.9,9.1,63,0.00,,---,0.00,VWS V13.01,2013-03-08 09:54:00,
2013-03-08 03:00:00,35.9,24.5,30.07,ENE,68,6.2,6.2,63,0.00,,---,0.00,VWS V13.01,2013-03-08 10:00:00,
2013-03-08 03:05:00,35.9,24.5,30.07,ENE,68,4.4,4.4,63,0.00,,---,0.00,VWS V13.01,2013-03-08 10:05:00,
2013-03-08 03:11:00,35.9,24.5,30.07,ENE,68,0.0,0.0,63,0.00,,---,0.00,VWS V13.01,2013-03-08 10:11:00,
2013-03-08 03:16:00,35.7,24.4,30.07,ENE,68,0.0,0.0,63,0.00,,---,0.00,VWS V13.01,2013-03-08 10:16:00,
2013-03-08 03:21:00,35.7,24.4,30.06,West,270,0.0,0.0,63,0.00,,---,0.00,VWS V13.01,2013-03-08 10:21:00,
2013-03-08 03:26:00,35.4,24.5,30.06,West,270,0.0,0.0,64,0.00,,---,0.00,VWS V13.01,2013-03-08 10:26:00,
2013-03-08 03:31:00,35.2,24.3,30.06,West,270,0.0,0.0,64,0.00,,---,0.00,VWS V13.01,2013-03-08 10:31:00,
2013-03-08 03:37:00,34.8,23.9,30.06,West,270,0.0,0.0,64,0.00,,---,0.00,VWS V13.01,2013-03-08 10:37:00,
2013-03-08 03:42:00,34.7,23.8,30.06,West,270,0.0,0.0,64,0.00,,---,0.00,VWS V13.01,2013-03-08 10:42:00,
2013-03-08 03:47:00,34.7,23.8,30.06,West,270,0.0,0.0,64,0.00,,---,0.00,VWS V13.01,2013-03-08 10:47:00,
2013-03-08 03:52:00,34.5,24.0,30.07,WNW,292,0.0,0.0,65,0.00,,---,0.00,VWS V13.01,2013-03-08 10:52:00,
2013-03-08 03:57:00,34.3,23.8,30.06,WNW,292,0.0,0.0,65,0.00,,---,0.00,VWS V13.01,2013-03-08 10:57:00,
2013-03-08 04:03:00,34.3,23.8,30.06,WNW,292,0.0,0.0,65,0.00,,---,0.00,VWS V13.01,2013-03-08 11:03:00,
2013-03-08 04:08:00,34.3,23.8,30.06,WNW,292,0.0,0.0,65,0.00,,---,0.00,VWS V13.01,2013-03-08 11:08:00,
2013-03-08 04:13:00,34.1,23.6,30.06,WNW,292,0.0,0.0,65,0.00,,---,0.00,VWS V13.01,2013-03-08 11:13:00,
2013-03-08 04:19:00,33.9,23.4,30.06,WNW,292,0.0,0.0,65,0.00,,---,0.00,VWS V13.01,2013-03-08 11:19:00,
2013-03-08 04:24:00,33.8,23.3,30.06,WNW,292,0.0,0.0,65,0.00,,---,0.00,VWS V13.01,2013-03-08 11:24:00,
2013-03-08 04:29:00,33.6,23.1,30.06,WNW,292,0.0,0.0,65,0.00,,---,0.00,VWS V13.01,2013-03-08 11:29:00,
2013-03-08 04:34:00,33.6,23.1,30.06,WNW,292,0.0,0.0,65,0.00,,---,0.00,VWS V13.01,2013-03-08 11:34:00,
2013-03-08 04:39:00,33.6,23.1,30.06,WNW,292,0.0,0.0,65,0.00,,---,0.00,VWS V13.01,2013-03-08 11:39:00,
2013-03-08 04:44:00,33.4,22.9,30.06,WNW,292,0.0,0.0,65,0.00,,---,0.00,VWS V13.01,2013-03-08 11:44:00,
2013-03-08 04:49:00,33.2,22.7,30.06,WNW,292,0.0,0.0,65,0.00,,---,0.00,VWS V13.01,2013-03-08 11:49:00,
2013-03-08 04:55:00,33.0,22.5,30.06,WNW,292,0.0,0.0,65,0.00,,---,0.00,VWS V13.01,2013-03-08 11:55:00,
2013-03-08 05:00:00,33.0,22.5,30.05,WNW,292,0.0,0.0,65,0.00,,---,0.00,VWS V13.01,2013-03-08 12:00:00,
2013-03-08 05:05:00,32.7,22.2,30.05,WNW,292,0.0,0.0,65,0.00,,---,0.00,VWS V13.01,2013-03-08 12:05:00,
2013-03-08 05:10:00,32.5,22.4,30.06,WNW,292,0.0,0.0,66,0.00,,---,0.00,VWS V13.01,2013-03-08 12:10:00,
2013-03-08 05:15:00,32.3,22.2,30.06,WNW,292,0.0,0.0,66,0.00,,---,0.00,VWS V13.01,2013-03-08 12:15:00,
2013-03-08 05:20:00,32.1,22.0,30.05,WNW,292,0.0,0.0,66,0.00,,---,0.00,VWS V13.01,2013-03-08 12:20:00,
2013-03-08 05:25:00,32.1,22.0,30.05,WNW,292,0.0,0.0,66,0.00,,---,0.00,VWS V13.01,2013-03-08 12:25:00,
2013-03-08 05:30:00,32.1,22.0,30.05,WNW,292,0.0,0.0,66,0.00,,---,0.00,VWS V13.01,2013-03-08 12:30:00,
2013-03-08 05:36:00,31.8,21.8,30.05,West,270,0.0,0.0,66,0.00,,---,0.00,VWS V13.01,2013-03-08 12:36:00,
2013-03-08 05:42:00,31.6,21.6,30.05,West,270,0.0,0.0,66,0.00,,---,0.00,VWS V13.01,2013-03-08 12:42:00,
2013-03-08 05:48:00,31.2,21.5,30.05,West,270,0.0,0.0,67,0.00,,---,0.00,VWS V13.01,2013-03-08 12:48:00,
2013-03-08 05:53:00,30.9,21.2,30.05,West,270,0.0,0.0,67,0.00,,---,0.00,VWS V13.01,2013-03-08 12:53:00,
2013-03-08 05:58:00,30.7,21.1,30.06,West,270,0.0,0.0,67,0.00,,---,0.00,VWS V13.01,2013-03-08 12:58:00,
2013-03-08 06:03:00,30.5,20.9,30.05,West,270,0.0,0.0,67,0.00,,---,0.00,VWS V13.01,2013-03-08 13:03:00,
2013-03-08 06:08:00,30.3,20.7,30.05,West,270,0.0,0.0,67,0.00,,---,0.00,VWS V13.01,2013-03-08 13:08:00,
2013-03-08 06:13:00,30.2,20.6,30.05,West,270,0.0,0.0,67,0.00,,---,0.00,VWS V13.01,2013-03-08 13:13:00,
2013-03-08 06:18:00,30.0,20.7,30.05,West,270,0.0,0.0,68,0.00,,---,0.00,VWS V13.01,2013-03-08 13:18:00,
2013-03-08 06:23:00,29.8,20.5,30.05,West,270,0.0,0.0,68,0.00,,---,0.00,VWS V13.01,2013-03-08 13:23:00,
2013-03-08 06:28:00,29.4,20.2,30.05,West,270,0.0,0.0,68,0.00,,---,0.00,VWS V13.01,2013-03-08 13:28:00,
2013-03-08 06:33:00,29.1,19.9,30.05,West,270,0.0,0.0,68,0.00,,---,0.00,VWS V13.01,2013-03-08 13:33:00,
2013-03-08 06:38:00,29.1,19.9,30.06,West,270,0.0,0.0,68,0.00,,---,0.00,VWS V13.01,2013-03-08 13:38:00,
2013-03-08 06:43:00,29.1,20.2,30.05,West,270,0.0,0.0,69,0.00,,---,0.00,VWS V13.01,2013-03-08 13:43:00,
2013-03-08 06:49:00,28.9,20.0,30.05,West,270,0.0,0.0,69,0.00,,---,0.00,VWS V13.01,2013-03-08 13:49:00,
2013-03-08 06:54:00,28.7,19.8,30.05,West,270,0.0,0.0,69,0.00,,---,0.00,VWS V13.01,2013-03-08 13:54:00,
2013-03-08 07:00:00,28.5,19.6,30.05,West,270,0.0,0.0,69,0.00,,---,0.00,VWS V13.01,2013-03-08 14:00:00,
2013-03-08 07:05:00,28.5,20.0,30.05,West,270,0.0,0.0,70,0.00,,---,0.00,VWS V13.01,2013-03-08 14:05:00,
2013-03-08 07:10:00,28.5,20.0,30.05,West,270,0.0,0.0,70,0.00,,---,0.00,VWS V13.01,2013-03-08 14:10:00,
2013-03-08 07:15:00,28.5,20.0,30.06,West,270,0.0,0.0,70,0.00,,---,0.00,VWS V13.01,2013-03-08 14:15:00,
2013-03-08 07:20:00,28.5,20.0,30.06,West,270,0.0,0.0,70,0.00,,---,0.00,VWS V13.01,2013-03-08 14:20:00,
2013-03-08 07:25:00,28.5,20.0,30.06,West,270,0.0,0.0,70,0.00,,---,0.00,VWS V13.01,2013-03-08 14:25:00,
2013-03-08 07:30:00,28.5,20.0,30.06,West,270,0.0,0.0,70,0.00,,---,0.00,VWS V13.01,2013-03-08 14:30:00,
2013-03-08 07:35:00,28.7,20.2,30.06,West,270,0.0,0.0,70,0.00,,---,0.00,VWS V13.01,2013-03-08 14:35:00,
2013-03-08 07:40:00,28.9,20.4,30.06,North,0,0.0,0.0,70,0.00,,---,0.00,VWS V13.01,2013-03-08 14:40:00,
2013-03-08 07:45:00,29.1,20.9,30.05,North,0,0.0,0.0,71,0.00,,---,0.00,VWS V13.01,2013-03-08 14:45:00,
2013-03-08 07:50:00,29.6,21.4,30.05,North,0,0.0,0.0,71,0.00,,---,0.00,VWS V13.01,2013-03-08 14:50:00,
2013-03-08 07:55:00,29.8,21.6,30.06,North,0,0.0,0.0,71,0.00,,---,0.00,VWS V13.01,2013-03-08 14:55:00,
2013-03-08 08:01:00,30.0,21.8,30.05,NNE,22,0.0,0.0,71,0.00,,---,0.00,VWS V13.01,2013-03-08 15:01:00,
2013-03-08 08:06:00,30.2,22.3,30.05,ENE,68,8.0,8.0,72,0.00,,---,0.00,VWS V13.01,2013-03-08 15:06:00,
2013-03-08 08:11:00,30.3,22.4,30.05,ENE,68,8.9,8.9,72,0.00,,---,0.00,VWS V13.01,2013-03-08 15:11:00,
2013-03-08 08:16:00,30.5,22.9,30.05,ENE,68,6.9,6.9,73,0.00,,---,0.00,VWS V13.01,2013-03-08 15:16:00,
2013-03-08 08:21:00,30.5,22.9,30.05,ENE,68,5.1,5.1,73,0.00,,---,0.00,VWS V13.01,2013-03-08 15:21:00,
2013-03-08 08:26:00,30.7,23.1,30.06,NE,45,1.3,5.3,73,0.00,,---,0.00,VWS V13.01,2013-03-08 15:26:00,
2013-03-08 08:31:00,30.7,23.1,30.06,ENE,68,0.0,3.5,73,0.00,,---,0.00,VWS V13.01,2013-03-08 15:31:00,
2013-03-08 08:36:00,30.5,22.9,30.06,ENE,68,4.4,4.4,73,0.00,,---,0.00,VWS V13.01,2013-03-08 15:36:00,
2013-03-08 08:41:00,30.7,23.1,30.06,ENE,68,0.0,0.0,73,0.00,,---,0.00,VWS V13.01,2013-03-08 15:41:00,
2013-03-08 08:46:00,30.7,23.1,30.07,ENE,68,0.0,0.0,73,0.00,,---,0.00,VWS V13.01,2013-03-08 15:46:00,
2013-03-08 08:52:00,30.7,23.1,30.06,ENE,68,4.6,4.6,73,0.00,,---,0.00,VWS V13.01,2013-03-08 15:52:00,
2013-03-08 08:57:00,30.7,23.1,30.06,ENE,68,0.0,0.0,73,0.00,,---,0.00,VWS V13.01,2013-03-08 15:57:00,
2013-03-08 09:02:00,30.9,23.3,30.06,ENE,68,6.0,6.0,73,0.00,,---,0.00,VWS V13.01,2013-03-08 16:02:00,
2013-03-08 09:07:00,30.9,23.3,30.06,ENE,68,0.0,0.0,73,0.00,,---,0.00,VWS V13.01,2013-03-08 16:07:00,
2013-03-08 09:12:00,31.1,23.5,30.05,NE,45,0.0,0.0,73,0.00,,---,0.00,VWS V13.01,2013-03-08 16:12:00,
2013-03-08 09:18:00,31.2,23.6,30.06,ENE,68,0.0,0.0,73,0.00,,---,0.00,VWS V13.01,2013-03-08 16:18:00,
2013-03-08 09:23:00,31.2,23.6,30.06,NE,45,6.7,6.7,73,0.00,,---,0.00,VWS V13.01,2013-03-08 16:23:00,
2013-03-08 09:28:00,31.2,23.6,30.06,NE,45,2.2,2.2,73,0.00,,---,0.00,VWS V13.01,2013-03-08 16:28:00,
2013-03-08 09:33:00,31.6,24.0,30.06,NE,45,0.0,0.0,73,0.00,,---,0.00,VWS V13.01,2013-03-08 16:33:00,
2013-03-08 09:38:00,31.6,23.6,30.05,ENE,68,0.0,0.0,72,0.00,,---,0.00,VWS V13.01,2013-03-08 16:38:00,
2013-03-08 09:43:00,31.6,23.6,30.05,ENE,68,4.0,6.0,72,0.00,,---,0.00,VWS V13.01,2013-03-08 16:43:00,
2013-03-08 09:48:00,31.6,24.0,30.05,ENE,68,0.0,0.0,73,0.00,,---,0.00,VWS V13.01,2013-03-08 16:48:00,
2013-03-08 09:53:00,31.8,23.8,30.05,NE,45,0.0,0.0,72,0.00,,---,0.00,VWS V13.01,2013-03-08 16:53:00,
2013-03-08 09:58:00,31.8,23.8,30.05,NNE,22,0.0,0.0,72,0.00,,---,0.00,VWS V13.01,2013-03-08 16:58:00,
2013-03-08 10:03:00,31.8,23.8,30.05,NNE,22,0.0,0.0,72,0.00,,---,0.00,VWS V13.01,2013-03-08 17:03:00,
2013-03-08 10:08:00,32.1,24.1,30.05,NNE,22,0.0,0.0,72,0.00,,---,0.00,VWS V13.01,2013-03-08 17:08:00,
2013-03-08 10:13:00,32.1,24.1,30.04,ENE,68,6.4,6.4,72,0.00,,---,0.00,VWS V13.01,2013-03-08 17:13:00,
2013-03-08 10:18:00,32.5,24.5,30.04,ENE,68,0.0,0.0,72,0.00,,---,0.00,VWS V13.01,2013-03-08 17:18:00,
2013-03-08 10:23:00,32.5,24.5,30.04,ENE,68,0.0,0.0,72,0.00,,---,0.00,VWS V13.01,2013-03-08 17:23:00,
2013-03-08 10:28:00,32.7,24.7,30.04,NE,45,0.0,0.0,72,0.00,,---,0.00,VWS V13.01,2013-03-08 17:28:00,
2013-03-08 10:33:00,32.9,24.9,30.04,ENE,68,0.0,0.0,72,0.00,,---,0.00,VWS V13.01,2013-03-08 17:33:00,
2013-03-08 10:38:00,33.0,25.0,30.04,ENE,68,0.0,0.0,72,0.00,,---,0.00,VWS V13.01,2013-03-08 17:38:00,
2013-03-08 10:43:00,33.2,25.2,30.04,ENE,68,0.0,0.0,72,0.00,,---,0.00,VWS V13.01,2013-03-08 17:43:00,
2013-03-08 10:48:00,33.6,25.2,30.03,North,0,6.2,6.2,71,0.00,,---,0.00,VWS V13.01,2013-03-08 17:48:00,
2013-03-08 10:53:00,33.6,25.2,30.04,NE,45,0.0,0.0,71,0.00,,---,0.00,VWS V13.01,2013-03-08 17:53:00,
2013-03-08 10:59:00,33.9,25.5,30.03,NNE,22,0.0,0.0,71,0.00,,---,0.00,VWS V13.01,2013-03-08 17:59:00,
2013-03-08 11:04:00,33.9,25.5,30.03,NNE,22,0.0,0.0,71,0.00,,---,0.00,VWS V13.01,2013-03-08 18:04:00,
2013-03-08 11:09:00,34.3,25.9,30.03,NNE,22,0.0,0.0,71,0.00,,---,0.00,VWS V13.01,2013-03-08 18:09:00,
2013-03-08 11:14:00,34.3,25.5,30.03,NNE,22,0.0,0.0,70,0.00,,---,0.00,VWS V13.01,2013-03-08 18:14:00,
2013-03-08 11:19:00,34.5,25.7,30.02,NW,315,0.0,0.0,70,0.00,,---,0.00,VWS V13.01,2013-03-08 18:19:00,
2013-03-08 11:24:00,34.8,26.0,30.02,NW,315,0.0,0.0,70,0.00,,---,0.00,VWS V13.01,2013-03-08 18:24:00,
2013-03-08 11:29:00,35.2,26.4,30.02,North,0,0.0,0.0,70,0.00,,---,0.00,VWS V13.01,2013-03-08 18:29:00,
2013-03-08 11:34:00,35.4,26.3,30.02,North,0,0.0,0.0,69,0.00,,---,0.00,VWS V13.01,2013-03-08 18:34:00,
2013-03-08 11:39:00,35.7,26.5,30.02,NW,315,3.3,3.3,69,0.00,,---,0.00,VWS V13.01,2013-03-08 18:39:00,
2013-03-08 11:44:00,35.9,26.7,30.02,NW,315,0.0,0.0,69,0.00,,---,0.00,VWS V13.01,2013-03-08 18:44:00,
2013-03-08 11:49:00,36.1,26.9,30.02,NW,315,0.0,0.0,69,0.00,,---,0.00,VWS V13.01,2013-03-08 18:49:00,
2013-03-08 11:55:00,36.5,27.0,30.02,West,270,0.0,0.0,68,0.00,,---,0.00,VWS V13.01,2013-03-08 18:55:00,
2013-03-08 12:00:00,37.0,27.4,30.02,West,270,0.0,0.0,68,0.00,,---,0.00,VWS V13.01,2013-03-08 19:00:00,
2013-03-08 12:05:00,37.2,27.3,30.02,WNW,292,0.0,0.0,67,0.00,,---,0.00,VWS V13.01,2013-03-08 19:05:00,
2013-03-08 12:10:00,37.5,27.5,30.02,West,270,0.0,0.0,67,0.00,,---,0.00,VWS V13.01,2013-03-08 19:10:00,
2013-03-08 12:15:00,37.7,27.8,30.01,WSW,248,0.0,0.0,67,0.00,,---,0.00,VWS V13.01,2013-03-08 19:15:00,
2013-03-08 12:20:00,37.9,27.6,30.01,WSW,248,0.0,0.0,66,0.00,,---,0.00,VWS V13.01,2013-03-08 19:20:00,
2013-03-08 12:25:00,38.1,27.8,30.01,WNW,292,0.0,0.0,66,0.00,,---,0.00,VWS V13.01,2013-03-08 19:25:00,
2013-03-08 12:30:00,38.3,27.6,30.00,SW,225,0.0,0.0,65,0.00,,---,0.00,VWS V13.01,2013-03-08 19:30:00,
2013-03-08 12:35:00,38.3,27.6,30.00,West,270,0.0,0.0,65,0.00,,---,0.00,VWS V13.01,2013-03-08 19:35:00,
2013-03-08 12:40:00,38.4,27.3,30.00,West,270,0.0,0.0,64,0.00,,---,0.00,VWS V13.01,2013-03-08 19:40:00,
2013-03-08 12:45:00,38.6,27.5,30.00,NE,45,0.0,0.0,64,0.00,,---,0.00,VWS V13.01,2013-03-08 19:45:00,
2013-03-08 12:50:00,38.8,27.3,29.99,ENE,68,0.0,0.0,63,0.00,,---,0.00,VWS V13.01,2013-03-08 19:50:00,
2013-03-08 12:55:00,38.8,27.3,29.99,NNE,22,0.0,0.0,63,0.00,,---,0.00,VWS V13.01,2013-03-08 19:55:00,
2013-03-08 13:00:00,39.0,27.5,29.99,North,0,4.4,4.4,63,0.00,,---,0.00,VWS V13.01,2013-03-08 20:00:00,
2013-03-08 13:05:00,39.0,27.5,29.98,NNE,22,0.0,0.0,63,0.00,,---,0.00,VWS V13.01,2013-03-08 20:05:00,
2013-03-08 13:10:00,39.0,27.5,29.98,East,90,0.0,0.0,63,0.00,,---,0.00,VWS V13.01,2013-03-08 20:10:00,
2013-03-08 13:15:00,39.2,27.7,29.98,ENE,68,0.0,2.2,63,0.00,,---,0.00,VWS V13.01,2013-03-08 20:15:00,
2013-03-08 13:20:00,39.3,27.8,29.97,NE,45,0.0,0.0,63,0.00,,---,0.00,VWS V13.01,2013-03-08 20:20:00,
2013-03-08 13:25:00,39.5,28.0,29.97,ENE,68,0.0,0.0,63,0.00,,---,0.00,VWS V13.01,2013-03-08 20:25:00,
2013-03-08 13:30:00,39.9,28.0,29.97,NNE,22,0.0,0.0,62,0.00,,---,0.00,VWS V13.01,2013-03-08 20:30:00,
2013-03-08 13:35:00,39.9,28.0,29.97,East,90,0.0,0.0,62,0.00,,---,0.00,VWS V13.01,2013-03-08 20:35:00,
2013-03-08 13:40:00,40.2,27.8,29.96,ENE,68,0.0,0.0,61,0.00,,---,0.00,VWS V13.01,2013-03-08 20:40:00,
2013-03-08 13:45:00,40.6,28.2,29.96,NE,45,0.0,0.0,61,0.00,,---,0.00,VWS V13.01,2013-03-08 20:45:00,
2013-03-08 13:50:00,40.8,28.4,29.96,ENE,68,4.9,4.9,61,0.00,,---,0.00,VWS V13.01,2013-03-08 20:50:00,
2013-03-08 13:55:00,41.0,28.6,29.96,ENE,68,0.0,0.0,61,0.00,,---,0.00,VWS V13.01,2013-03-08 20:55:00,
2013-03-08 14:00:00,41.1,28.7,29.96,ENE,68,6.0,6.2,61,0.00,,---,0.00,VWS V13.01,2013-03-08 21:00:00,
2013-03-08 14:05:00,41.5,28.7,29.96,NE,45,0.0,2.9,60,0.00,,---,0.00,VWS V13.01,2013-03-08 21:05:00,
2013-03-08 14:10:00,41.7,28.9,29.96,ENE,68,6.2,6.2,60,0.00,,---,0.00,VWS V13.01,2013-03-08 21:10:00,
2013-03-08 14:15:00,42.0,28.7,29.96,ENE,68,0.0,0.0,59,0.00,,---,0.00,VWS V13.01,2013-03-08 21:15:00,
2013-03-08 14:20:00,42.2,28.9,29.96,ENE,68,4.0,4.0,59,0.00,,---,0.00,VWS V13.01,2013-03-08 21:20:00,
2013-03-08 14:25:00,42.4,29.1,29.96,ENE,68,0.0,0.0,59,0.00,,---,0.00,VWS V13.01,2013-03-08 21:25:00,
2013-03-08 14:30:00,42.4,28.7,29.96,East,90,0.0,6.0,58,0.00,,---,0.00,VWS V13.01,2013-03-08 21:30:00,
2013-03-08 14:35:00,42.4,28.7,29.95,ENE,68,0.0,0.0,58,0.00,,---,0.00,VWS V13.01,2013-03-08 21:35:00,
2013-03-08 14:40:00,42.4,28.7,29.95,ENE,68,0.0,0.0,58,0.00,,---,0.00,VWS V13.01,2013-03-08 21:40:00,
2013-03-08 14:45:00,42.4,28.7,29.96,ENE,68,0.0,0.0,58,0.00,,---,0.00,VWS V13.01,2013-03-08 21:45:00,
2013-03-08 14:50:00,42.6,28.9,29.96,ENE,68,0.0,0.0,58,0.00,,---,0.00,VWS V13.01,2013-03-08 21:50:00,
2013-03-08 14:55:00,42.6,28.9,29.96,ENE,68,4.6,4.6,58,0.00,,---,0.00,VWS V13.01,2013-03-08 21:55:00,
2013-03-08 15:00:00,42.6,28.9,29.95,ENE,68,0.0,0.0,58,0.00,,---,0.00,VWS V13.01,2013-03-08 22:00:00,
2013-03-08 15:05:00,42.6,28.9,29.95,NE,45,0.0,0.0,58,0.00,,---,0.00,VWS V13.01,2013-03-08 22:05:00,
2013-03-08 15:11:00,42.6,28.9,29.95,NE,45,0.0,0.0,58,0.00,,---,0.00,VWS V13.01,2013-03-08 22:11:00,
2013-03-08 15:16:00,42.6,28.9,29.95,ENE,68,0.0,0.0,58,0.00,,---,0.00,VWS V13.01,2013-03-08 22:16:00,
2013-03-08 15:21:00,42.9,28.7,29.95,ENE,68,0.0,0.0,57,0.00,,---,0.00,VWS V13.01,2013-03-08 22:21:00,
2013-03-08 15:26:00,42.9,28.7,29.95,ENE,68,0.0,4.9,57,0.00,,---,0.00,VWS V13.01,2013-03-08 22:26:00,
2013-03-08 15:31:00,43.1,28.9,29.95,SE,135,0.0,0.0,57,0.00,,---,0.00,VWS V13.01,2013-03-08 22:31:00,
2013-03-08 15:36:00,43.3,29.1,29.95,SE,135,0.0,0.0,57,0.00,,---,0.00,VWS V13.01,2013-03-08 22:36:00,
2013-03-08 15:41:00,43.5,29.3,29.95,ENE,68,6.0,6.0,57,0.00,,---,0.00,VWS V13.01,2013-03-08 22:41:00,
2013-03-08 15:46:00,43.5,29.3,29.95,ENE,68,0.0,0.0,57,0.00,,---,0.00,VWS V13.01,2013-03-08 22:46:00,
2013-03-08 15:51:00,43.5,29.3,29.95,ENE,68,0.0,0.0,57,0.00,,---,0.00,VWS V13.01,2013-03-08 22:51:00,
2013-03-08 15:56:00,43.3,29.1,29.95,ENE,68,0.0,0.0,57,0.00,,---,0.00,VWS V13.01,2013-03-08 22:56:00,
2013-03-08 16:02:00,43.5,29.3,29.95,ENE,68,0.0,0.0,57,0.00,,---,0.00,VWS V13.01,2013-03-08 23:02:00,
2013-03-08 16:07:00,43.5,29.3,29.95,ENE,68,0.0,0.0,57,0.00,,---,0.00,VWS V13.01,2013-03-08 23:07:00,
2013-03-08 16:12:00,43.5,29.3,29.95,ENE,68,0.0,0.0,57,0.00,,---,0.00,VWS V13.01,2013-03-08 23:12:00,
2013-03-08 16:17:00,43.7,29.5,29.95,ENE,68,5.8,5.8,57,0.00,,---,0.00,VWS V13.01,2013-03-08 23:17:00,
2013-03-08 16:22:00,43.8,29.6,29.95,ENE,68,0.0,0.0,57,0.00,,---,0.00,VWS V13.01,2013-03-08 23:22:00,
2013-03-08 16:27:00,43.8,29.6,29.95,ENE,68,0.0,0.0,57,0.00,,---,0.00,VWS V13.01,2013-03-08 23:27:00,
2013-03-08 16:32:00,43.8,29.6,29.95,ENE,68,0.0,0.0,57,0.00,,---,0.00,VWS V13.01,2013-03-08 23:32:00,
2013-03-08 16:37:00,43.8,29.6,29.95,ENE,68,0.0,0.0,57,0.00,,---,0.00,VWS V13.01,2013-03-08 23:37:00,
2013-03-08 16:42:00,43.8,29.6,29.95,ENE,68,5.3,5.3,57,0.00,,---,0.00,VWS V13.01,2013-03-08 23:42:00,
2013-03-08 16:47:00,43.8,29.6,29.95,ENE,68,0.0,0.0,57,0.00,,---,0.00,VWS V13.01,2013-03-08 23:47:00,
2013-03-08 16:52:00,43.8,29.6,29.95,ENE,68,2.0,2.0,57,0.00,,---,0.00,VWS V13.01,2013-03-08 23:52:00,
2013-03-08 16:58:00,43.8,29.6,29.95,ENE,68,0.0,0.0,57,0.00,,---,0.00,VWS V13.01,2013-03-08 23:58:00,
2013-03-08 17:04:00,43.8,29.6,29.95,ENE,68,0.0,0.0,57,0.00,,---,0.00,VWS V13.01,2013-03-09 00:04:00,
2013-03-08 17:09:00,43.8,29.6,29.95,ENE,68,0.0,0.0,57,0.00,,---,0.00,VWS V13.01,2013-03-09 00:09:00,
2013-03-08 17:14:00,43.8,29.6,29.95,ENE,68,0.0,0.0,57,0.00,,---,0.00,VWS V13.01,2013-03-09 00:14:00,
2013-03-08 17:19:00,43.8,29.6,29.95,ENE,68,0.0,0.0,57,0.00,,---,0.00,VWS V13.01,2013-03-09 00:19:00,
2013-03-08 17:24:00,43.8,29.6,29.95,NE,45,0.0,0.0,57,0.00,,---,0.00,VWS V13.01,2013-03-09 00:24:00,
2013-03-08 17:29:00,43.7,29.5,29.95,NE,45,0.0,0.0,57,0.00,,---,0.00,VWS V13.01,2013-03-09 00:29:00,
2013-03-08 17:34:00,43.5,29.3,29.95,NE,45,0.0,0.0,57,0.00,,---,0.00,VWS V13.01,2013-03-09 00:34:00,
2013-03-08 17:39:00,43.5,29.3,29.96,NE,45,0.0,0.0,57,0.00,,---,0.00,VWS V13.01,2013-03-09 00:39:00,
2013-03-08 17:44:00,43.3,29.1,29.95,NE,45,0.0,0.0,57,0.00,,---,0.00,VWS V13.01,2013-03-09 00:44:00,
2013-03-08 17:49:00,43.1,28.9,29.96,NE,45,0.0,0.0,57,0.00,,---,0.00,VWS V13.01,2013-03-09 00:49:00,
2013-03-08 17:54:00,42.9,28.7,29.96,NE,45,0.0,0.0,57,0.00,,---,0.00,VWS V13.01,2013-03-09 00:54:00,
2013-03-08 18:00:00,42.6,28.5,29.96,NE,45,0.0,0.0,57,0.00,,---,0.00,VWS V13.01,2013-03-09 01:00:00,
2013-03-08 18:05:00,42.6,28.5,29.96,NE,45,0.0,0.0,57,0.00,,---,0.00,VWS V13.01,2013-03-09 01:05:00,
2013-03-08 18:10:00,42.2,28.1,29.96,NE,45,0.0,0.0,57,0.00,,---,0.00,VWS V13.01,2013-03-09 01:10:00,
2013-03-08 18:15:00,41.5,27.4,29.96,NE,45,0.0,0.0,57,0.00,,---,0.00,VWS V13.01,2013-03-09 01:15:00,
2013-03-08 18:20:00,41.1,27.5,29.96,ENE,68,0.0,0.0,58,0.00,,---,0.00,VWS V13.01,2013-03-09 01:20:00,
2013-03-08 18:25:00,40.6,27.4,29.96,ENE,68,0.0,0.0,59,0.00,,---,0.00,VWS V13.01,2013-03-09 01:25:00,
2013-03-08 18:31:00,39.9,26.8,29.96,ENE,68,0.0,0.0,59,0.00,,---,0.00,VWS V13.01,2013-03-09 01:31:00,
2013-03-08 18:36:00,39.3,26.6,29.97,ENE,68,0.0,0.0,60,0.00,,---,0.00,VWS V13.01,2013-03-09 01:36:00,
2013-03-08 18:41:00,39.2,26.9,29.97,ENE,68,0.0,0.0,61,0.00,,---,0.00,VWS V13.01,2013-03-09 01:41:00,
2013-03-08 18:46:00,39.0,26.7,29.96,ENE,68,0.0,0.0,61,0.00,,---,0.00,VWS V13.01,2013-03-09 01:46:00,
2013-03-08 18:51:00,38.8,26.9,29.97,ENE,68,0.0,0.0,62,0.00,,---,0.00,VWS V13.01,2013-03-09 01:51:00,
2013-03-08 18:56:00,38.4,26.5,29.97,ENE,68,0.0,0.0,62,0.00,,---,0.00,VWS V13.01,2013-03-09 01:56:00,
2013-03-08 19:01:00,38.3,26.8,29.97,East,90,0.0,0.0,63,0.00,,---,0.00,VWS V13.01,2013-03-09 02:01:00,
2013-03-08 19:06:00,38.1,26.6,29.97,East,90,0.0,0.0,63,0.00,,---,0.00,VWS V13.01,2013-03-09 02:06:00,
2013-03-08 19:11:00,37.9,26.5,29.97,East,90,0.0,0.0,63,0.00,,---,0.00,VWS V13.01,2013-03-09 02:11:00,
2013-03-08 19:16:00,37.9,26.5,29.97,East,90,0.0,0.0,63,0.00,,---,0.00,VWS V13.01,2013-03-09 02:16:00,
2013-03-08 19:21:00,37.5,26.1,29.97,East,90,0.0,0.0,63,0.00,,---,0.00,VWS V13.01,2013-03-09 02:21:00,
2013-03-08 19:26:00,37.5,26.5,29.97,East,90,0.0,0.0,64,0.00,,---,0.00,VWS V13.01,2013-03-09 02:26:00,
2013-03-08 19:31:00,37.2,26.2,29.97,East,90,0.0,0.0,64,0.00,,---,0.00,VWS V13.01,2013-03-09 02:31:00,
2013-03-08 19:36:00,37.0,26.0,29.97,East,90,0.0,0.0,64,0.00,,---,0.00,VWS V13.01,2013-03-09 02:36:00,
2013-03-08 19:41:00,36.8,25.8,29.97,East,90,0.0,0.0,64,0.00,,---,0.00,VWS V13.01,2013-03-09 02:41:00,
2013-03-08 19:46:00,36.6,25.6,29.97,East,90,0.0,0.0,64,0.00,,---,0.00,VWS V13.01,2013-03-09 02:46:00,
2013-03-08 19:51:00,36.3,25.7,29.97,East,90,0.0,0.0,65,0.00,,---,0.00,VWS V13.01,2013-03-09 02:51:00,
2013-03-08 19:56:00,36.1,25.5,29.97,SSE,158,0.0,0.0,65,0.00,,---,0.00,VWS V13.01,2013-03-09 02:56:00,
2013-03-08 20:01:00,35.9,25.3,29.98,South,180,0.0,0.0,65,0.00,,---,0.00,VWS V13.01,2013-03-09 03:01:00,
2013-03-08 20:06:00,35.7,25.1,29.98,South,180,0.0,0.0,65,0.00,,---,0.00,VWS V13.01,2013-03-09 03:06:00,
2013-03-08 20:11:00,35.4,24.8,29.99,South,180,0.0,0.0,65,0.00,,---,0.00,VWS V13.01,2013-03-09 03:11:00,
2013-03-08 20:16:00,35.4,24.8,29.99,South,180,0.0,0.0,65,0.00,,---,0.00,VWS V13.01,2013-03-09 03:16:00,
2013-03-08 20:21:00,35.0,24.8,29.99,ENE,68,0.0,0.0,66,0.00,,---,0.00,VWS V13.01,2013-03-09 03:21:00,
2013-03-08 20:26:00,35.2,25.0,30.00,ENE,68,0.0,0.0,66,0.00,,---,0.00,VWS V13.01,2013-03-09 03:26:00,
2013-03-08 20:32:00,35.4,25.2,30.00,ENE,68,0.0,0.0,66,0.00,,---,0.00,VWS V13.01,2013-03-09 03:32:00,
2013-03-08 20:37:00,35.4,24.8,30.00,ENE,68,0.0,0.0,65,0.00,,---,0.00,VWS V13.01,2013-03-09 03:37:00,
2013-03-08 20:42:00,35.2,24.6,30.00,ENE,68,0.0,0.0,65,0.00,,---,0.00,VWS V13.01,2013-03-09 03:42:00,
2013-03-08 20:47:00,34.5,24.0,30.00,East,90,0.0,0.0,65,0.00,,---,0.00,VWS V13.01,2013-03-09 03:47:00,
2013-03-08 20:52:00,34.3,24.1,30.00,East,90,0.0,0.0,66,0.00,,---,0.00,VWS V13.01,2013-03-09 03:52:00,
2013-03-08 20:57:00,33.8,23.7,30.00,East,90,0.0,0.0,66,0.00,,---,0.00,VWS V13.01,2013-03-09 03:57:00,
2013-03-08 21:02:00,33.4,23.6,30.00,East,90,0.0,0.0,67,0.00,,---,0.00,VWS V13.01,2013-03-09 04:02:00,
2013-03-08 21:07:00,33.4,23.6,30.00,East,90,0.0,0.0,67,0.00,,---,0.00,VWS V13.01,2013-03-09 04:07:00,
2013-03-08 21:12:00,33.2,23.8,30.00,ENE,68,0.0,0.0,68,0.00,,---,0.00,VWS V13.01,2013-03-09 04:12:00,
2013-03-08 21:17:00,33.2,23.8,30.00,ENE,68,0.0,0.0,68,0.00,,---,0.00,VWS V13.01,2013-03-09 04:17:00,
2013-03-08 21:22:00,33.0,23.6,30.00,ENE,68,0.0,0.0,68,0.00,,---,0.00,VWS V13.01,2013-03-09 04:22:00,
2013-03-08 21:27:00,33.0,23.6,30.01,ENE,68,0.0,0.0,68,0.00,,---,0.00,VWS V13.01,2013-03-09 04:27:00,
2013-03-08 21:32:00,32.9,23.9,30.00,ENE,68,0.0,0.0,69,0.00,,---,0.00,VWS V13.01,2013-03-09 04:32:00,
2013-03-08 21:37:00,32.7,23.7,30.01,ENE,68,0.0,0.0,69,0.00,,---,0.00,VWS V13.01,2013-03-09 04:37:00,
2013-03-08 21:42:00,32.7,23.7,30.00,ENE,68,0.0,0.0,69,0.00,,---,0.00,VWS V13.01,2013-03-09 04:42:00,
2013-03-08 21:47:00,32.7,24.0,30.01,ENE,68,2.6,2.6,70,0.00,,---,0.00,VWS V13.01,2013-03-09 04:47:00,
2013-03-08 21:52:00,32.7,24.0,30.01,East,90,0.0,0.0,70,0.00,,---,0.00,VWS V13.01,2013-03-09 04:52:00,
2013-03-08 21:57:00,32.7,24.0,30.01,East,90,0.0,0.0,70,0.00,,---,0.00,VWS V13.01,2013-03-09 04:57:00,
2013-03-08 22:00:00,32.7,24.0,30.01,East,90,0.0,0.0,70,0.00,,---,0.00,VWS V13.01,2013-03-09 05:00:00,
2013-03-08 22:01:00,32.7,24.0,30.01,East,90,0.0,0.0,70,0.00,,---,0.00,VWS V13.01,2013-03-09 05:01:00,
2013-03-08 22:03:00,32.7,24.0,30.01,East,90,0.0,0.0,70,0.00,,---,0.00,VWS V13.01,2013-03-09 05:03:00,
2013-03-08 22:06:00,32.7,24.0,30.01,East,90,0.0,0.0,70,0.00,,---,0.00,VWS V13.01,2013-03-09 05:06:00,
2013-03-08 22:11:00,32.7,24.0,30.01,East,90,0.0,0.0,70,0.00,,---,0.00,VWS V13.01,2013-03-09 05:11:00,
2013-03-08 22:16:00,32.5,23.8,30.00,East,90,0.0,0.0,70,0.00,,---,0.00,VWS V13.01,2013-03-09 05:16:00,
2013-03-08 22:21:00,32.5,23.8,30.01,East,90,0.0,0.0,70,0.00,,---,0.00,VWS V13.01,2013-03-09 05:21:00,
2013-03-08 22:26:00,32.5,23.8,30.01,East,90,0.0,0.0,70,0.00,,---,0.00,VWS V13.01,2013-03-09 05:26:00,
2013-03-08 22:31:00,32.3,23.6,30.00,East,90,0.0,0.0,70,0.00,,---,0.00,VWS V13.01,2013-03-09 05:31:00,
2013-03-08 22:37:00,32.3,23.6,30.01,East,90,0.0,0.0,70,0.00,,---,0.00,VWS V13.01,2013-03-09 05:37:00,
2013-03-08 22:42:00,32.0,23.3,30.01,East,90,0.0,0.0,70,0.00,,---,0.00,VWS V13.01,2013-03-09 05:42:00,
2013-03-08 22:47:00,31.6,22.6,30.01,East,90,0.0,0.0,69,0.00,,---,0.00,VWS V13.01,2013-03-09 05:47:00,
2013-03-08 22:52:00,31.2,22.6,30.01,East,90,0.0,0.0,70,0.00,,---,0.00,VWS V13.01,2013-03-09 05:52:00,
2013-03-08 22:57:00,30.7,22.1,30.01,East,90,0.0,0.0,70,0.00,,---,0.00,VWS V13.01,2013-03-09 05:57:00,
2013-03-08 23:02:00,30.5,22.2,30.01,East,90,0.0,0.0,71,0.00,,---,0.00,VWS V13.01,2013-03-09 06:02:00,
2013-03-08 23:07:00,30.3,22.0,30.01,East,90,0.0,0.0,71,0.00,,---,0.00,VWS V13.01,2013-03-09 06:07:00,
2013-03-08 23:12:00,30.0,21.8,30.01,East,90,0.0,0.0,71,0.00,,---,0.00,VWS V13.01,2013-03-09 06:12:00,
2013-03-08 23:17:00,30.0,21.8,30.01,East,90,0.0,0.0,71,0.00,,---,0.00,VWS V13.01,2013-03-09 06:17:00,
2013-03-08 23:22:00,29.8,21.9,30.01,East,90,0.0,0.0,72,0.00,,---,0.00,VWS V13.01,2013-03-09 06:22:00,
2013-03-08 23:27:00,29.4,21.5,30.02,East,90,0.0,0.0,72,0.00,,---,0.00,VWS V13.01,2013-03-09 06:27:00,
2013-03-08 23:32:00,29.3,21.4,30.02,East,90,0.0,0.0,72,0.00,,---,0.00,VWS V13.01,2013-03-09 06:32:00,
2013-03-08 23:37:00,29.3,21.4,30.02,East,90,0.0,0.0,72,0.00,,---,0.00,VWS V13.01,2013-03-09 06:37:00,
2013-03-08 23:42:00,29.1,21.2,30.02,East,90,0.0,0.0,72,0.00,,---,0.00,VWS V13.01,2013-03-09 06:42:00,
2013-03-08 23:47:00,29.1,21.2,30.02,East,90,0.0,0.0,72,0.00,,---,0.00,VWS V13.01,2013-03-09 06:47:00,
2013-03-08 23:52:00,29.1,21.2,30.02,East,90,0.0,0.0,72,0.00,,---,0.00,VWS V13.01,2013-03-09 06:52:00,
2013-03-08 23:57:00,28.9,21.0,30.02,East,90,0.0,0.0,72,0.00,,---,0.00,VWS V13.01,2013-03-09 06:57:00,